Cincinnati, OH

1:29 PM EST on November 12, 2019 (GMT -0500)
Cincinnati Municipal-Lunken

Weather History for KLUK - July, 2019

Change the Weather History Date:

Saturday, July 20, 2019

  Actual Average Record
Temperature  
Mean Temperature 83 °F -  
Max Temperature 93 °F 86 °F 99 °F (1980)
Min Temperature 73 °F 67 °F 53 °F (1951)
Cooling Degree Days 18    
Growing Degree Days 33 (Base 50)    
Moisture  
Dew Point 74 °F    
Average Humidity 81    
Maximum Humidity 100    
Minimum Humidity 52    
Precipitation  
Precipitation 0.00 in - - ()
Sea Level Pressure  
Sea Level Pressure 29.97 in    
Wind  
Wind Speed 4 mph (SSW)    
Max Wind Speed 16 mph    
Max Gust Speed 23 mph    
Visibility 8 miles    
Events Fog    
Averages and records for this station are not official NWS values.
T = Trace of Precipitation, MM = Missing Value Source: NWS Daily Summary

Daily Weather History Graph

Daily Weather History Graph

Search for Another Location

Airport or City:

Astronomy

Jul. 20, 2019 Rise Set
Actual Time 6:27 AM EDT 8:59 PM EDT
Civil Twilight 5:56 AM EDT 9:30 PM EDT
Nautical Twilight 5:18 AM EDT 10:08 PM EDT
Astronomical Twilight 4:35 AM EDT 10:51 PM EDT
Moon 11:28 PM EDT (7/20) 9:49 AM EDT (7/20)
Length of Visible Light 15h 33m
Length of Day
14h 32m
Waning Gibbous, 87% of the Moon is Illuminated
Jul 20
Waning Gibbous
Jul 24
Last Quarter
Jul 31
New
Aug 7
First Quarter
Aug 15
Full

Hourly Weather History & Observations

Time (EDT) Temp. Heat Index Dew Point Humidity Pressure Visibility Wind Dir Wind Speed Gust Speed Precip Events Conditions
12:53 AM 77.0 °F - 75.0 °F 94% 29.97 in 8.0 mi SSW 5.8 mph - N/A   Clear
1:53 AM 77.0 °F - 75.0 °F 94% 29.96 in 8.0 mi Calm Calm - N/A   Clear
2:53 AM 75.0 °F - 73.9 °F 96% 29.96 in 6.0 mi Calm Calm - N/A   Clear
3:53 AM 75.0 °F - 73.9 °F 96% 29.96 in 7.0 mi Calm Calm - N/A   Clear
4:43 AM 73.9 °F - 73.9 °F 100% 29.98 in 1.5 mi South 3.5 mph - N/A   Clear
4:53 AM 73.9 °F - 73.9 °F 100% 29.97 in 0.5 mi Calm Calm - N/A Fog Fog
5:02 AM 75.0 °F - 73.9 °F 96% 29.99 in 2.0 mi Calm Calm - N/A   Clear
5:13 AM 73.0 °F - 73.0 °F 100% 30.00 in 3.0 mi Calm Calm - N/A   Clear
5:53 AM 73.9 °F - 73.9 °F 100% 29.99 in 5.0 mi Calm Calm - N/A   Clear
6:48 AM 73.4 °F - 73.4 °F 100% 30.02 in 6.0 mi Calm Calm - N/A   Partly Cloudy
6:53 AM 73.9 °F - 73.0 °F 97% 30.01 in 6.0 mi Calm Calm - N/A   Partly Cloudy
7:00 AM 73.9 °F - 73.0 °F 97% 30.02 in 2.0 mi Calm Calm - N/A   Clear
7:07 AM 73.9 °F - 73.0 °F 97% 30.03 in 6.0 mi Calm Calm - N/A   Clear
7:53 AM 77.0 °F - 75.0 °F 94% 30.03 in 6.0 mi Calm Calm - N/A   Partly Cloudy
8:53 AM 80.1 °F 85.8 °F 77.0 °F 90% 30.01 in 9.0 mi South 8.1 mph - N/A   Clear
9:53 AM 84.9 °F 94.1 °F 75.9 °F 74% 29.99 in 10.0 mi Variable 5.8 mph - N/A   Clear
10:53 AM 88.0 °F 100.2 °F 77.0 °F 70% 29.98 in 10.0 mi Variable 3.5 mph - N/A   Clear
11:53 AM 89.1 °F 100.2 °F 75.9 °F 65% 29.97 in 10.0 mi South 6.9 mph - N/A   Partly Cloudy
12:53 PM 90.0 °F 100.2 °F 75.0 °F 61% 29.97 in 10.0 mi SSE 11.5 mph - N/A   Partly Cloudy
1:53 PM 91.0 °F 100.4 °F 73.9 °F 57% 29.94 in 10.0 mi SSW 16.1 mph - N/A   Clear
2:53 PM 93.0 °F 101.9 °F 73.0 °F 52% 29.93 in 10.0 mi SW 16.1 mph 23.0 mph N/A   Clear
3:53 PM 93.0 °F 101.9 °F 73.0 °F 52% 29.93 in 10.0 mi WSW 13.8 mph - N/A   Partly Cloudy
4:53 PM 91.0 °F 99.3 °F 73.0 °F 55% 29.93 in 10.0 mi WSW 8.1 mph - N/A   Partly Cloudy
5:53 PM 93.0 °F 101.9 °F 73.0 °F 52% 29.93 in 10.0 mi WSW 10.4 mph - N/A   Partly Cloudy
6:53 PM 91.9 °F 100.7 °F 73.0 °F 54% 29.93 in 10.0 mi WSW 5.8 mph - N/A   Partly Cloudy
7:53 PM 89.1 °F 96.0 °F 72.0 °F 57% 29.91 in 10.0 mi WSW 5.8 mph - N/A   Clear
8:53 PM 84.0 °F 91.9 °F 75.0 °F 74% 29.92 in 10.0 mi South 4.6 mph - N/A   Clear
9:53 PM 82.9 °F 89.4 °F 73.9 °F 74% 29.94 in 10.0 mi Calm Calm - N/A   Clear
10:53 PM 78.1 °F - 75.0 °F 90% 29.92 in 10.0 mi South 4.6 mph - N/A   Clear
11:53 PM 75.9 °F - 75.0 °F 97% 29.94 in 10.0 mi South 3.5 mph - N/A   Clear